Oita current weather conditions

sailwx.info

Wind from 330 at 4 knots

Air temperature 6.0° C
Visibility: greater than 5.4 NM
Dewpoint -0.0° C

Last reported at 2015-Mar-05 12:00 UTC.
Time now 2015-Mar-05 14:41 UTC

Location: N 33°29' E 131°44'.
View on Google Maps.

See reports from other nearby stations

  
Tides and Currents Weather Stations Pressure Air Temp Water Temp Dewpoint Dewpoint Depression Visibility Wind Speed Wind Dir Waves Ship Positions
date/time (UTC)wind fromknots sea level pressurealtimeterstation pressurevisibilityair tempwater tempwave heightnotes
2015-Mar-05 12:00 330 4 5.4 6.0
2015-Mar-05 11:00 260 5 5.4 7.0
2015-Mar-05 10:00 300 5 5.4 7.0
2015-Mar-05 09:00 310 4 5.4 8.0
2015-Mar-05 08:00 350 7 5.4 9.0
2015-Mar-05 07:00 360 11 5.410.0
2015-Mar-05 06:00 040 14 5.4 9.0
2015-Mar-05 05:00 030 14 5.4 9.0
2015-Mar-05 04:00 030 14 5.4 8.0
2015-Mar-05 03:00 030 10 5.4 9.0
2015-Mar-05 02:00 020 11 5.4 8.0
2015-Mar-05 01:00 020 9 5.4 8.0
2015-Mar-05 00:00 360 10 5.4 8.0
2015-Mar-04 23:00 320 6 5.4 6.0
2015-Mar-04 22:00 320 7 5.4 4.0
2015-Mar-04 12:00 340 4 5.4 6.0
2015-Mar-04 11:00 320 9 5.4 6.0
2015-Mar-04 10:00 330 10 5.4 6.0
2015-Mar-04 09:00 320 10 5.4 6.0
2015-Mar-04 08:00 320 14 5.4 8.0
2015-Mar-04 07:00 310 13 5.4 9.0
2015-Mar-04 06:00 320 14 5.410.0
2015-Mar-04 05:00 310 16 5.410.0
2015-Mar-04 04:00 300 12 5.410.0
2015-Mar-04 03:00 300 14 5.410.0
2015-Mar-04 02:00 280 12 5.410.0
2015-Mar-04 01:00 310 12 5.4 9.0
2015-Mar-04 00:00 310 8 5.4 9.0
2015-Mar-03 23:00 260 4 5.4 7.0
2015-Mar-03 22:00 260 3 5.4 6.0